Hattiesburg, MS

3:09 PM CDT on March 29, 2017 (GMT -0500)
Chain Municipal

Weather History for KHBG - December, 2011

Change the Weather History Date:

Sunday, December 25, 2011

  Actual Average Record
Temperature  
Mean Temperature 51 °F 50 °F  
Max Temperature 54 °F 61 °F 80 °F (1955)
Min Temperature 48 °F 39 °F 7 °F (1989)
Degree Days  
Heating Degree Days 14 16  
Month to date heating degree days 307 361  
Since 1 July heating degree days 671 689  
Cooling Degree Days 0 0  
Month to date cooling degree days 6 12  
Year to date cooling degree days 2770 2402  
Growing Degree Days 1 (Base 50)    
Moisture  
Dew Point 48 °F    
Average Humidity 81    
Maximum Humidity 93    
Minimum Humidity 68    
Precipitation  
Precipitation 0.62 in 0.16 in 1.75 in (1988)
Month to date precipitation 2.84 4.03  
Year to date precipitation 55.74 58.29  
Sea Level Pressure  
Sea Level Pressure 30.30 in    
Wind  
Wind Speed 5 mph (NNE)    
Max Wind Speed 12 mph    
Max Gust Speed 16 mph    
Visibility 7 miles    
Events Rain    
T = Trace of Precipitation, MM = Missing Value Source: NWS Daily Summary

Daily Weather History Graph

Daily Weather History Graph

Search for Another Location

Airport or City:

Trip Planner

Search our weather history database for the weather conditions in past years. The results will help you decide how hot, cold, wet, or windy it might be!

Date:

Astronomy

Dec. 25, 2011 Rise Set
Actual Time 6:53 AM CST 5:00 PM CST
Civil Twilight 6:26 AM CST 5:27 PM CST
Nautical Twilight 5:56 AM CST 5:57 PM CST
Astronomical Twilight 5:26 AM CST 6:27 PM CST
Moon 7:34 AM CST (12/25) 6:17 PM CST (12/25)
Length of Visible Light 11h 00m
Length of Day
10h 07m
New Moon, 1% of the Moon is Illuminated
Dec 25
New Moon
Jan 1
First Quarter
Jan 9
Full
Jan 16
Last Quarter
Jan 23
New

Hourly Weather History & Observations

Time (CST) Temp. Dew Point Humidity Pressure Visibility Wind Dir Wind Speed Gust Speed Precip Events Conditions
12:53 AM 51.1 °F 41.0 °F 68% 30.32 in 10.0 mi ENE 4.6 mph - N/A   Overcast
1:08 AM 51.8 °F 41.0 °F 67% 30.32 in 10.0 mi NE 5.8 mph - N/A   Overcast
1:30 AM 51.8 °F 42.8 °F 71% 30.33 in 10.0 mi NNW 5.8 mph - 0.00 in Rain Light Rain
1:48 AM 50.0 °F 42.8 °F 76% 30.33 in 10.0 mi North 4.6 mph - 0.00 in   Overcast
1:53 AM 50.0 °F 42.1 °F 74% 30.32 in 10.0 mi North 5.8 mph - 0.00 in   Overcast
2:39 AM 50.0 °F 42.8 °F 76% 30.30 in 10.0 mi NNE 3.5 mph - 0.00 in Rain Light Rain
2:53 AM 48.9 °F 43.0 °F 80% 30.30 in 10.0 mi ENE 3.5 mph - 0.00 in   Overcast
3:53 AM 48.0 °F 44.1 °F 86% 30.28 in 9.0 mi NE 4.6 mph - 0.08 in Rain Light Rain
4:53 AM 48.0 °F 45.0 °F 89% 30.27 in 6.0 mi Calm Calm - 0.09 in Rain Light Rain
5:53 AM 48.9 °F 45.0 °F 86% 30.26 in 10.0 mi NE 5.8 mph - 0.00 in   Overcast
6:37 AM 48.2 °F 46.4 °F 93% 30.29 in 9.0 mi North 5.8 mph - N/A   Overcast
6:53 AM 48.9 °F 46.0 °F 90% 30.29 in 9.0 mi NNE 4.6 mph - N/A   Overcast
7:06 AM 50.0 °F 46.4 °F 87% 30.30 in 9.0 mi North 4.6 mph - N/A   Overcast
7:20 AM 50.0 °F 46.4 °F 87% 30.30 in 9.0 mi NNE 5.8 mph - N/A   Overcast
7:39 AM 50.0 °F 46.4 °F 87% 30.30 in 8.0 mi ENE 4.6 mph - N/A   Overcast
7:53 AM 50.0 °F 46.9 °F 89% 30.31 in 8.0 mi NE 3.5 mph - N/A   Overcast
8:53 AM 51.1 °F 46.9 °F 86% 30.32 in 8.0 mi NE 4.6 mph - 0.00 in   Overcast
9:26 AM 51.8 °F 48.2 °F 88% 30.33 in 2.5 mi NNE 5.8 mph - 0.05 in Rain Rain
9:35 AM 51.8 °F 48.2 °F 88% 30.34 in 4.0 mi NNW 4.6 mph - 0.05 in Rain Light Rain
9:53 AM 51.1 °F 48.0 °F 89% 30.35 in 3.0 mi Variable 4.6 mph - 0.06 in Rain Light Rain
10:03 AM 51.8 °F 48.2 °F 88% 30.35 in 2.0 mi North 5.8 mph - 0.00 in Rain Light Rain
10:17 AM 51.8 °F 48.2 °F 88% 30.36 in 3.0 mi NNW 9.2 mph - 0.01 in Rain Light Rain
10:39 AM 51.8 °F 48.2 °F 88% 30.35 in 2.5 mi North 8.1 mph - 0.04 in Rain Rain
10:48 AM 51.8 °F 48.2 °F 88% 30.34 in 4.0 mi North 6.9 mph - 0.04 in Rain Light Rain
10:53 AM 51.1 °F 48.0 °F 89% 30.35 in 4.0 mi North 8.1 mph - 0.05 in Rain Rain
11:53 AM 51.1 °F 48.0 °F 89% 30.32 in 4.0 mi NNE 5.8 mph - 0.02 in Rain Light Rain
12:53 PM 52.0 °F 48.9 °F 89% 30.29 in 10.0 mi NNE 5.8 mph - 0.01 in   Overcast
1:53 PM 53.1 °F 50.0 °F 89% 30.27 in 10.0 mi NE 4.6 mph - 0.00 in Rain Light Rain
2:20 PM 53.6 °F 50.0 °F 88% 30.26 in 10.0 mi ENE 4.6 mph - 0.00 in   Overcast
2:53 PM 53.1 °F 50.0 °F 89% 30.26 in 10.0 mi NE 3.5 mph - 0.00 in   Overcast
3:36 PM 53.6 °F 51.8 °F 94% 30.25 in 6.0 mi ESE 4.6 mph - 0.02 in Rain Light Rain
3:53 PM 53.1 °F 51.1 °F 93% 30.25 in 3.0 mi Variable 3.5 mph - 0.02 in Rain Light Rain
4:09 PM 53.6 °F 51.8 °F 94% 30.27 in 6.0 mi North 5.8 mph - 0.01 in Rain Light Rain
5:53 PM 54.0 °F 52.0 °F 93% 30.29 in 10.0 mi NE 4.6 mph - 0.00 in   Overcast
6:53 PM 54.0 °F 51.1 °F 90% 30.29 in 10.0 mi NE 5.8 mph - 0.00 in   Overcast
7:53 PM 54.0 °F 51.1 °F 90% 30.30 in 10.0 mi NNE 8.1 mph - N/A   Overcast
8:53 PM 53.1 °F 51.1 °F 93% 30.31 in 5.0 mi Variable 4.6 mph - 0.08 in Rain Rain
9:15 PM 53.6 °F 51.8 °F 94% 30.31 in 5.0 mi NE 3.5 mph - 0.06 in Rain Rain
9:45 PM 53.6 °F 51.8 °F 94% 30.29 in 5.0 mi East 6.9 mph - 0.13 in Rain Rain
9:53 PM 53.1 °F 50.0 °F 89% 30.28 in 6.0 mi East 6.9 mph - 0.14 in Rain Rain
10:53 PM 53.1 °F 50.0 °F 89% 30.28 in 10.0 mi NNE 4.6 mph - 0.06 in Rain Light Rain
11:53 PM 52.0 °F 50.0 °F 93% 30.26 in 10.0 mi Calm Calm - 0.00 in Rain Light Rain